Simultaneous Nadir Overpasses (SNOs) Predictions

Prediction of SNOs between METOP-B and NOAA-19 Satellite Orbit:

Table of predicted SNOs for the next 14.0 days since TLE Epoch: 2/22/2019
Index Date (METOP-B) Time (METOP-B) Lat,Lon (METOP-B) SZA (METOP-B ) Date (NOAA-19) Time (NOAA-19) Lat,Lon (NOAA-19) SZA (NOAA-19 ) Distance(km) Time Diff (sec)
1 02/23/2019 15:46:08 79.04, -42.29 88.95 02/23/2019 15:44:55 79.04, -42.44 88.93 3.20 73
2 02/23/2019 16:36:50 -79.02, 124.88 91.10 02/23/2019 16:36:00 -79.03, 124.87 91.10 0.90 50
3 02/23/2019 17:27:30 79.03, -67.73 88.90 02/23/2019 17:26:55 79.01, -67.70 88.88 2.33 35
4 02/23/2019 18:18:12 -79.00, 99.45 91.14 02/23/2019 18:18:01 -79.03, 99.36 91.12 3.25 11
5 02/23/2019 19:08:52 79.01, -93.16 88.86 02/23/2019 19:08:56 79.01, -93.22 88.86 1.38 4
6 02/23/2019 19:59:34 -78.99, 74.02 91.18 02/23/2019 20:00:01 -79.00, 74.10 91.17 1.88 27
7 02/23/2019 20:50:14 79.00,-118.59 88.82 02/23/2019 20:50:57 79.01,-118.74 88.83 3.29 43
8 02/23/2019 21:40:56 -78.98, 48.58 91.23 02/23/2019 21:42:02 -79.00, 48.58 91.19 2.47 66
9 03/06/2019 14:27:34 -79.13, 157.99 95.07 03/06/2019 14:26:22 -79.15, 156.68 95.11 27.61 72
10 03/06/2019 15:18:17 79.03, -35.37 84.80 03/06/2019 15:17:16 79.06, -35.33 84.82 3.59 61
11 03/06/2019 16:08:58 -79.05, 132.06 95.20 03/06/2019 16:08:20 -79.06, 131.95 95.20 2.62 38
12 03/06/2019 16:59:38 79.05, -60.55 84.80 03/06/2019 16:59:16 79.03, -60.59 84.78 2.47 22
13 03/06/2019 17:50:20 -79.03, 106.62 95.25 03/06/2019 17:50:20 -79.03, 106.69 95.25 1.49 0
14 03/06/2019 18:41:00 79.04, -85.98 84.76 03/06/2019 18:41:17 79.04, -86.10 84.75 2.62 17
15 03/06/2019 19:31:42 -79.02, 81.19 95.29 03/06/2019 19:32:21 -79.03, 81.17 95.27 1.37 39
16 03/06/2019 20:22:22 79.03,-111.42 84.71 03/06/2019 20:23:17 79.00,-111.36 84.70 2.75 55




NCC Satellite Simultaneous Nadir Overpasses (SNOs) Prediction Service
